www.pogodaiklimat.ru

Погода и климат >> Архив погоды >> Алжир >> In-Salah


ПОГОДА в In-Salah

АРХИВ ПОГОДЫ в In-Salah

Время (UTC), дата Ветер
(напр.,м/с)
 
Видим.   Явления Облачность Т
(С)
Тd
(С)
f
(%)
Тe
(С)
Тes
(С)
Комфортность P
(гПа)
Po
(гПа)
Тmin
(С)
Tmax
(С)
R
(мм)
R24
(мм)
S
(см)
18 11.10 ЮЗ 3 10 км 4/3 1500 м
[Cu med, cong Ac trans Ci sp]
+34.0 +29 +29 жарко 1012.1 1012.0 +37.0
21 11.10 В 4 10 км 5/3 1500 м
[Cu med, cong Ac trans Ci sp]
+29.0 -1.2 14 +26 +26 жарко 1013.4 1013.0
00 12.10 СВ 4 10 км 4/0
[Ac trans Ci sp]
+27.3 -2.0 15 +25 +25 комфорт 1013.4 1013.0
03 12.10 С 2 10 км 4/0
[Ac trans Ci sp]
+24.8 +0.1 20 +23 +23 комфорт 1013.4 1013.0
06 12.10 СВ 4 10 км 4/0
[Ac trans Ci sp]
+23.8 +3.2 26 +23 +23 комфорт 1014.4 1014.0 +23.6
09 12.10 В 11 8000 м пыльный позёмок 6/5 1500 м
[Cu med, cong Ac trans Ci sp]
+30.5 +4.6 19 +28 +28 жарко 1015.4 1015.0
12 12.10 ЮВ 6 8000 м 5/4 1500 м
[Cu med, cong Ac trans Ci sp]
+36.5 +31 +34 жарко 1012.9 1013.0
15 12.10 Ю 4 8000 м 6/5 1500 м
[Cu med, cong Ac trans Ci sp]
+37.0 +32 +34 жарко 1011.1 1011.0
18 12.10 В 5 8000 м 8/5 1500 м
[Cu med, cong Ac trans]
+33.9 +29 +29 жарко 1011.8 1012.0 +37.2
21 12.10 СВ 8 8000 м 8/5 1500 м
[Cu med, cong Ac trans]
+30.8 -3.8 10 +27 +27 жарко 1013.5 1014.0
00 13.10 В 8 8000 м 5/5 1500 м
[Cu med, cong Ac trans]
+29.0 -7.0 9 +25 +25 комфорт 1013.7 1014.0
03 13.10 СВ 10 8000 м пыльный позёмок 5/5 1500 м
[Cu med, cong Ac trans]
+25.7 -2.9 15 +24 +24 комфорт 1012.0 1012.0
06 13.10 СВ 7 8000 м 6/4 1500 м
[Cu med, cong Ac trans]
+24.2 +2.9 25 +23 +23 комфорт 1013.1 1013.0 +24.2
09 13.10 СВ 10 8000 м пыльный позёмок 6/4 1500 м
[Cu med, cong Ac trans]
+28.5 +6.2 24 +27 +27 жарко 1014.1 1014.0
12 13.10 СВ 9 8000 м пыльный позёмок 3/0
[Ac trans]
+33.9 +4.3 16 +31 +32 жарко 1011.9 1012.0
15 13.10 В 6 10 км 3/0
[Ac trans]
+34.5 +0.2 11 +31 +33 жарко 1009.8 1010.0
18 13.10 СВ 6 10 км 3/0
[Ac trans]
+32.1 +1.2 14 +29 +29 жарко 1010.0 1010.0 +34.9
21 13.10 СВ 8 10 км 4/3 1500 м
[Cu med, cong Ac trans]
+28.6 +3.1 19 +27 +27 жарко 1012.0 1012.0
00 14.10 В 7 10 км 5/4 1500 м
[Cu med, cong Ac trans]
+25.5 +5.0 27 +25 +25 комфорт 1012.2 1012.0
03 14.10 СВ 8 10 км 5/4 1500 м
[Cu med, cong Ac trans]
+23.4 +6.2 33 +24 +24 комфорт 1010.8 1011.0
06 14.10 СВ 8 10 км 3/1 1500 м
[Cu med, cong Ac trans]
+23.6 +7.0 34 +24 +24 комфорт 1011.9 1012.0 +22.6
09 14.10 В 10 8000 м пыльный позёмок ясно +27.2 +6.2 26 +26 +27 жарко 1011.6 1012.0
12 14.10 В 8 10 км ясно +32.8 +7.0 20 +31 +34 жарко 1010.2 1010.0
15 14.10 В 6 10 км ясно +34.6 +1.1 12 +31 +33 жарко 1008.6 1009.0
18 14.10 СВ 3 10 км ясно +32.7 -1.4 11 +29 +29 жарко 1009.0 1009.0 +36.8
21 14.10 штиль 0 10 км ясно +25.8 -2.0 16 +24 +24 комфорт 1010.5 1011.0
00 15.10 СВ 7 10 км ясно +25.6 +1.8 21 +24 +24 комфорт 1010.8 1011.0
03 15.10 СВ 7 10 км ясно +24.4 +1.9 23 +23 +23 комфорт 1010.3 1010.0
06 15.10 СВ 5 10 км ясно +22.9 +2.8 27 +23 +23 комфорт 1011.1 1011.0 +22.8
09 15.10 В 8 10 км ясно +28.2 +4.0 21 +27 +28 жарко 1012.7 1013.0
12 15.10 ЮВ 4 15 км 1/1 1500 м
[Cu hum]
+34.8 +4.5 15 +32 +40 жарко 1011.0 1011.0
15 15.10 ЮЗ 6 15 км 3/3 1500 м
[Cu med, cong]
+36.0 +2.6 12 +33 +34 жарко 1009.3 1009.0
18 15.10 З 4 15 км 5/1 1500 м
[Cu med, cong Ac trans Ci sp]
+32.5 -3.3 10 +29 +29 жарко 1009.7 1010.0 +36.7
21 15.10 штиль 0 15 км 4/0
[Ac trans Ci sp]
+27.0 -2.6 14 +24 +24 комфорт 1010.9 1011.0
00 16.10 штиль 0 15 км 4/0
[Ac trans Ci sp]
+22.0 -1.7 20 +23 +23 комфорт 1010.7 1011.0
03 16.10 штиль 0 15 км 4/0
[Ac trans Ci sp]
+18.0 -1.5 27 +18 +18 1010.2 1010.0
06 16.10 штиль 0 15 км 5/0
[Ac trans Ci sp]
+16.4 -2.9 26 +16 +16 1011.9 1012.0 +16.3
09 16.10 Ю 4 10 км 5/0
[Ac trans Ci sp]
+25.9 -1.0 17 +24 +28 комфорт 1011.9 1012.0
12 16.10 ЮЗ 10 6000 м пыльный позёмок 5/0
[Ac trans Ci sp]
+35.3 +30 +30 жарко 1010.2 1010.0
15 16.10 З 13 1600 м пыльный позёмок 5/0
[Ac trans Ci sp]
+36.8 +32 +32 жарко 1007.7 1008.0
18 16.10 ЮЗ 6 2800 м пыль 6/0
[Ac trans Ci sp]
+34.2 +29 +29 жарко 1008.5 1009.0 +37.1
21 16.10 ЮЗ 7 4000 м пыль 4/0
[Ac trans Ci sp]
+31.0 +26 +26 жарко 1008.3 1008.0
00 17.10 ЮЗ 4 4000 м пыль 4/0
[Ac trans Ci sp]
+27.7 -7.0 10 +24 +24 комфорт 1007.6 1008.0
03 17.10 ЮЗ 2 4000 м пыль 4/0
[Ac trans Ci sp]
+24.3 -3.0 16 +22 +22 комфорт 1006.6 1007.0
06 17.10 ЮЗ 2 4000 м пыль 4/0
[Ac trans Ci sp]
+19.3 -2.1 23 +20 +20 1007.7 1008.0 +18.8
09 17.10 штиль 0 4000 м пыль 4/0
[Ac trans Ci sp]
+27.3 -1.8 15 +25 +32 комфорт 1008.3 1008.0
12 17.10 З 2 8000 м 3/0
[Ci sp]
+34.0 -2.0 10 +30 +43 жарко 1006.8 1007.0
15 17.10 ЮЗ 5 10 км ясно +35.9 -1.9 9 +32 +35 жарко 1005.0 1005.0
18 17.10 ЮЗ 5 10 км 3/0
[Ac trans Ci sp]
+32.7 -1.0 11 +29 +29 жарко 1005.4 1005.0 +36.2
21 17.10 штиль 0 10 км 4/0
[Ac trans Ci sp]
+25.1 +1.8 22 +22 +22 комфорт 1007.3 1007.0
00 18.10 СВ 7 10 км 4/0
[Ac trans Ci sp]
+25.2 +4.5 26 +25 +25 комфорт 1007.0 1007.0
03 18.10 СВ 4 10 км 4/0
[Ac trans Ci sp]
+22.2 +5.1 33 +23 +23 комфорт 1006.5 1007.0
06 18.10 СВ 5 10 км 3/0
[Ac trans Ci sp]
+21.6 +5.8 36 +22 +22 комфорт 1007.7 1008.0 +21.6
09 18.10 СВ 8 10 км 3/0
[Ac trans Ci sp]
+27.1 +4.6 24 +26 +27 жарко 1008.1 1008.0
12 18.10 В 5 10 км ясно +30.9 +4.5 19 +29 +36 жарко 1006.5 1007.0

 

Местоположение метеостанции In-Salah (Алжир): широта 27.23 долгота 2.50 высота над уровнем моря 269 м.

В архиве по умолчанию представлена погода в In-Salah за последнюю неделю. Архивные данные за месяц целиком и за предыдущие месяцы, начиная с января 2011 года, Вы можете получить, выбрав интересующий диапазон дат из раскрывающегося списка и нажав кнопку "Ввод!".


*Определитесь, кто Вы:
робот инопланетянин человек

Внимание! Время в таблицах - всемирное. Для получения местного времени необходимо прибавить поправку, которая в In-Salah равна 1 ч.

Смотрите также архив погоды в соседних городах и на ближайших метеорологических станциях:

Погода в Arak (Алжир) (254 км)
Погода в Adrar (Алжир) (274 км)
Погода в Timimoun (Алжир) (313 км)
Погода в Abankor (Алжир) (326 км)
Погода в Moulay Lachen (Алжир) (350 км)
Погода в El-Golea (Алжир) (373 км)
Погода в In Ziza (Алжир) (418 км)
Погода в Mertouek (Алжир) (455 км)
Погода в Rhourde-Nouss (Алжир) (495 км)
Погода в Tin Fouye (Алжир) (514 км)

Пояснения к столбцам:

Ветер - указаны скорость ветра в м/с - средняя за 10 мин, порывы в срок и между сроками (в фигурных скобках) и направление, откуда дует ветер: С - северный, СВ - северо-восточный, В - восточный, ЮВ - юго-восточный, Ю - южный, ЮЗ - юго-западный, З - западный, СЗ - северо-западный.
Видимость - горизонтальная дальность видимости в метрах или километрах. При видимости от 1 до 10 км при отсутствии осадков обычно наблюдается дымка, при ухудшении видимости до 1 км и менее - туман. В сухую погоду видимость может ухудшаться дымом, пылью или мглою.
Явления - указаны атмосферные явления, наблюдавшиеся в срок или в последний час перед сроком; фигурными скобками обозначены явления, наблюдавшиеся между сроками (за 1-3 часа до срока); квадратными скобками обозначены град или гололедные отложения с указанием их диаметра в мм.
Облачность - указаны через наклонную черту общая и нижняя облачность в баллах и высота нижней границы облаков в метрах; квадратными скобками обозначены формы облаков: Ci - перистые, Cs - перисто-слоистые, Cc - перисто-кучевые, Ac - высококучевые, As - высокослоистые, Sc - слоисто-кучевые, Ns - слоисто-дождевые, Cu - кучевые, Cb - кучево-дождевые. Подробнее классификацию облаков см. в Атласе облаков (PDF).
T - Температура воздуха - температура, измеренная на высоте 2 м над землей.
Td - Температура точки росы - температура, при понижении до которой содержащийся в воздухе водяной пар достигнет насыщения.
f - Относительная влажность воздуха - влажноcть воздуха, измеренная на высоте 2 м над землей.
Te - Эффективная температура - температура, которую ощущает одетый по сезону человек в тени. Характеристика душности погоды. При расчете учитывается влияние влажности воздуха и скорости ветра на теплоощущения человека.
Tes - Эффективная температура на солнце - температура, которую ощущает человек, с поправкой на солнечный нагрев. Характеристика знойности погоды. Зависит от высоты солнца над горизонтом, облачности и скорости ветра. Ночью, в пасмурную погоду, а также при ветре 12 м/с и более поправка равна нулю.
P - Атмосферное давление - приведенное к уровню моря атмосферное давление.
Po - Атмосферное давление - измеренное на уровне метеостанции атмосферное давление.
Tmin - Минимальная температура - минимум температуры воздуха на высоте 2 м над землей.
Tmax - Максимальная температура - максимум температуры воздуха на высоте 2 м над землей.
R - Количество осадков - Количество выпавших осадков за период времени, мм. При наведении курсора мыши на число - период времени, за который выпало указанное количество осадков.
R24 - Количество осадков - Количество выпавших осадков за 24 часа, мм.
S - Снежный покров - Высота снежного покрова, см. При наведении курсора мыши на число - состояние снежного покрова и степень покрытия местности в баллах.